Simultaneous Nadir Overpasses (SNOs) Predictions

Prediction of SNOs between GOES-14 and NPP Satellite Orbit:

Table of predicted SNOs for the next 14.0 days since TLE Epoch: 11/28/2020
Index Date Time (GOES-14) GOES-14 Lat,Lon NPP Lat,Lon Distance(km) Time Diff (sec)
1 11/29/2020 08:38:44 -0.03,-104.38 0.78,-108.02 414.40 80
2 11/30/2020 08:17:18 -0.01,-104.37 -0.22,-103.49 101.58 80
3 12/02/2020 20:20:27 0.02,-104.13 -0.01,-104.24 12.45 80
4 12/05/2020 08:26:09 -0.03,-104.36 0.13,-104.98 71.05 80
5 12/06/2020 08:04:43 -0.01,-104.35 -0.88,-100.45 444.66 80
6 12/07/2020 20:26:39 0.04,-104.10 -0.30,-105.75 187.71 80
7 12/08/2020 20:10:32 0.03,-104.10 0.65,-101.20 329.32 80
8 12/10/2020 08:32:20 -0.05,-104.35 0.42,-106.49 243.81 80
9 12/11/2020 08:10:55 -0.03,-104.34 -0.59,-101.96 272.12 80
